IW4DZV-13 Weather Reports


time (UTC)temp
C
wind
direction
speed
KPH
gust
KPH
rain 1hr
cm
rain 24hr
cm
rain mn
cm
humidity
%
barometer
mb
20260906103053 30 360 1.6 0.0 0.00 0.00 0.00 57 1020.7
20260906101551 30 360 0.0 0.0 0.00 0.00 0.00 60 1020.7
20260906100058 30 360 1.6 0.0 0.00 0.00 0.00 60 1020.7
20260906094551 30 360 1.6 0.0 0.00 0.00 0.00 62 1020.9
20260906093050 29 360 1.6 0.0 0.00 0.00 0.00 63 1020.8
20260906091548 29 360 1.6 0.0 0.00 0.00 0.00 63 1020.9
20260906090044 29 360 0.0 0.0 0.00 0.00 0.00 64 1020.9
20260906084541 28 360 0.0 0.0 0.00 0.00 0.00 68 1020.9
20260906083038 28 360 1.6 0.0 0.00 0.00 0.00 67 1020.8
20260906081535 27 360 0.0 0.0 0.00 0.00 0.00 69 1020.9
20260906080034 27 360 0.0 0.0 0.00 0.00 0.00 68 1020.7
20260906074530 26 360 0.0 0.0 0.00 0.00 0.00 69 1020.7
20260906073026 26 360 1.6 0.0 0.00 0.00 0.00 69 1020.5
20260906071522 25 360 0.0 0.0 0.00 0.00 0.00 73 1020.4
20260906070023 24 360 0.0 0.0 0.00 0.00 0.00 73 1020.4
20260906064517 23 360 0.0 0.0 0.00 0.00 0.00 75 1020.4
20260906063012 22 360 0.0 0.0 0.00 0.00 0.00 77 1020.2
20260906061510 22 360 0.0 0.0 0.00 0.00 0.00 78 1019.9
20260906060006 22 360 0.0 0.0 0.00 0.00 0.00 79 1019.8
20260906054505 21 360 0.0 0.0 0.00 0.00 0.00 80 1019.8
20260906053004 21 360 0.0 0.0 0.00 0.00 0.00 82 1019.7
20260906051502 21 360 0.0 0.0 0.00 0.00 0.00 84 1019.6
20260906050105 21 360 0.0 0.0 0.00 0.00 0.00 85 1019.5
20260906044600 21 360 0.0 0.0 0.00 0.00 0.00 86 1019.3
20260906043055 21 360 0.0 0.0 0.00 0.00 0.00 87 1019.3
20260906041553 21 360 0.0 0.0 0.00 0.00 0.00 87 1019.0
20260906040057 22 360 0.0 0.0 0.00 0.00 0.00 88 1018.8
20260906034552 22 360 0.0 0.0 0.00 0.00 0.00 89 1018.7
20260906033046 22 360 0.0 0.0 0.00 0.00 0.00 89 1018.5
20260906031606 22 360 0.0 0.0 0.00 0.00 0.00 90 1018.4
20260906030045 22 360 0.0 0.0 0.00 0.00 0.00 89 1018.3
20260906024557 22 360 0.0 0.0 0.00 0.00 0.00 89 1018.3
20260906023048 22 360 0.0 0.0 0.00 0.00 0.00 89 1018.3
20260906021544 22 360 0.0 0.0 0.00 0.00 0.00 88 1018.3
20260906020041 22 360 0.0 0.0 0.00 0.00 0.00 89 1018.1
20260906014541 22 360 0.0 0.0 0.00 0.00 0.00 88 1018.1
20260906013041 22 360 0.0 0.0 0.00 0.00 0.00 87 1017.9
20260906011539 22 360 0.0 0.0 0.00 0.00 0.00 87 1018.0
20260906010047 22 360 0.0 0.0 0.00 0.00 0.00 86 1017.9
20260906004543 22 360 0.0 0.0 0.00 0.00 0.00 85 1017.9
20260906003037 22 360 0.0 0.0 0.00 0.00 0.00 85 1017.8
20260906001537 22 360 0.0 0.0 0.00 0.00 0.00 85 1017.8
20260906000035 22 360 0.0 0.0 0.00 0.00 0.00 84 1017.8
20260905234533 22 360 0.0 0.0 0.00 0.00 0.00 84 1017.6
20260905233032 22 360 0.0 0.0 0.00 0.00 0.00 83 1017.6
20260905231530 22 360 0.0 0.0 0.00 0.00 0.00 82 1017.5
20260905230032 23 360 0.0 0.0 0.00 0.00 0.00 82 1017.6
20260905224525 23 360 0.0 0.0 0.00 0.00 0.00 81 1017.5
20260905223024 23 360 0.0 0.0 0.00 0.00 0.00 80 1017.4
20260905221523 23 360 0.0 0.0 0.00 0.00 0.00 79 1017.2
20260905220023 24 360 0.0 0.0 0.00 0.00 0.00 79 1017.2
20260905214518 24 360 0.0 0.0 0.00 0.00 0.00 78 1017.1
20260905213017 24 360 0.0 0.0 0.00 0.00 0.00 77 1016.9
20260905211541 25 360 0.0 0.0 0.00 0.00 0.00 77 1016.9
20260905210017 25 360 0.0 0.0 0.00 0.00 0.00 76 1016.9
20260905204516 25 360 0.0 0.0 0.00 0.00 0.00 75 1016.8
20260905203016 25 360 0.0 0.0 0.00 0.00 0.00 75 1016.8
20260905201514 25 360 0.0 0.0 0.00 0.00 0.00 75 1016.6
20260905200013 25 360 1.6 0.0 0.00 0.00 0.00 75 1016.6
20260905194512 26 360 0.0 0.0 0.00 0.00 0.00 74 1016.4
20260905193011 26 360 0.0 0.0 0.00 0.00 0.00 72 1016.3
20260905191509 26 360 0.0 0.0 0.00 0.00 0.00 71 1016.0
20260905190009 26 360 0.0 0.0 0.00 0.00 0.00 69 1015.9
20260905184509 27 360 0.0 0.0 0.00 0.00 0.00 67 1015.6
20260905183008 27 360 1.6 0.0 0.00 0.00 0.00 66 1015.5
20260905181507 27 360 0.0 0.0 0.00 0.00 0.00 63 1015.2
20260905180007 27 360 0.0 0.0 0.00 0.00 0.00 57 1014.9
20260905174507 27 360 0.0 0.0 0.00 0.00 0.00 55 1014.8
20260905173009 28 360 0.0 0.0 0.00 0.00 0.00 54 1014.6
20260905171506 28 360 0.0 0.0 0.00 0.00 0.00 52 1014.5
20260905170006 29 360 0.0 0.0 0.00 0.00 0.00 51 1014.4
20260905164506 30 360 0.0 0.0 0.00 0.00 0.00 48 1014.4
20260905163005 30 360 0.0 0.0 0.00 0.00 0.00 45 1014.2
20260905161504 31 360 0.0 0.0 0.00 0.00 0.00 43 1014.2
20260905160003 31 360 0.0 0.0 0.00 0.00 0.00 43 1014.2
20260905154503 31 360 0.0 0.0 0.00 0.00 0.00 44 1014.1
20260905153002 31 360 0.0 0.0 0.00 0.00 0.00 44 1013.9
20260905151502 31 360 0.0 0.0 0.00 0.00 0.00 42 1013.9
20260905144600 31 360 0.0 0.0 0.00 0.00 0.00 43 1014.0
20260905143059 31 360 0.0 0.0 0.00 0.00 0.00 44 1014.1
20260905141558 31 360 1.6 0.0 0.00 0.00 0.00 44 1014.3
20260905140056 31 360 0.0 0.0 0.00 0.00 0.00 44 1014.4
20260905134601 32 360 0.0 0.0 0.00 0.00 0.00 45 1014.4
20260905133058 32 360 0.0 0.0 0.00 0.00 0.00 43 1014.6
20260905131557 33 360 0.0 0.0 0.00 0.00 0.00 43 1014.7
20260905130055 33 360 0.0 0.0 0.00 0.00 0.00 45 1014.9
20260905124555 33 360 1.6 0.0 0.00 0.00 0.00 44 1015.1
20260905123054 33 360 0.0 0.0 0.00 0.00 0.00 46 1015.3
20260905121551 32 360 0.0 0.0 0.00 0.00 0.00 45 1015.2
20260905120049 32 360 0.0 0.0 0.00 0.00 0.00 43 1015.4
20260905114548 32 360 0.0 0.0 0.00 0.00 0.00 46 1015.6
20260905113047 32 360 1.6 0.0 0.00 0.00 0.00 46 1015.9
20260905111546 32 360 0.0 0.0 0.00 0.00 0.00 49 1015.8
20260905110057 32 360 0.0 0.0 0.00 0.00 0.00 49 1015.7
20260905104542 31 360 0.0 0.0 0.00 0.00 0.00 46 1015.9